World > North America > United States > Arizona

Groom Creek, Arizona Regional Weather

Lat: 34.48N, Lon: 112.43W
Wx Zone: AZZ008Web Search

Pass this page to a friend. Tell them to point their camera at the QR Code near the bottom of this page.

Feedback


°F Click to change Groom Creek hourly weather to Imperial units.Click to change Groom Creek hourly weather to Metric units. °C
Groom Creek Weather Map
UTC Time: 5/7/2021, 21:21
Your Time:

Groom Creek, AZ Regional Weather

Expires:202105072200;;753735
ASUS45 KPSR 072110
RWRAZ 

ARIZONA HOURLY REGIONAL WEATHER ROUNDUP
NATIONAL WEATHER SERVICE PHOENIX AZ
200 PM MST FRI MAY 07 2021

NOTE: FAIR INDICATES FEW OR NO CLOUDS BELOW 12,000 FEET WITH NO
SIGNIFICANT WEATHER AND/OR OBSTRUCTIONS TO VISIBILITY.


AZZ004>008-015-016-018-072200-
NORTH CENTRAL ARIZONA
  
CITY           SKY/WX    TMP DP  RH WIND       PRES   REMARKS
GRAND CANYON   SUNNY     74  10   8 SW28G37   30.09F                  
WILLIAMS       SUNNY     73   7   7 SW20G32   30.12F                  
PRESCOTT       SUNNY     77  19  11 S20G30    30.05F                  
FLAGSTAFF      SUNNY     71   9   9 SW25G37   30.14F                  
PAYSON         SUNNY     79  12   8 S9G18     30.09F                  
PAGE           SUNNY     88   3   4 SW12G26   29.87F                  
$$


SKY/WX - Weather  TMP - Temperature  DP - Dew Point  RH - Relative Humidity
WIND - Wind Direction/Speed PRES - Barometric Pressure VSB - Visibility
WCI - Wind Chill Index E13G22 Wind - East Wind 13 mph/Gusts of 22 mph